Oxford, NC

2:08 PM EDT on June 22, 2017 (GMT -0400)
Henderson-Oxford

Weather History for KHNZ - February, 2014

Change the Weather History Date:

Saturday, February 15, 2014

  Actual Average (KTDF) Record (KTDF)
Temperature  
Mean Temperature 36 °F -  
Max Temperature 44 °F 54 °F 75 °F (1989)
Min Temperature 29 °F 30 °F 14 °F (2015)
Degree Days  
Heating Degree Days 28    
Moisture  
Dew Point 26 °F    
Average Humidity 66    
Maximum Humidity 97    
Minimum Humidity 34    
Precipitation  
Precipitation 0.31 in - - ()
Sea Level Pressure  
Sea Level Pressure 29.74 in    
Wind  
Wind Speed 6 mph (West)    
Max Wind Speed 20 mph    
Max Gust Speed 31 mph    
Visibility 8 miles    
Events Rain    
Averages and records for this station are not official NWS values.
T = Trace of Precipitation, MM = Missing Value Source: NWS Daily Summary

Daily Weather History Graph

Daily Weather History Graph

Search for Another Location

Airport or City:

Trip Planner

Search our weather history database for the weather conditions in past years. The results will help you decide how hot, cold, wet, or windy it might be!

Date:

Astronomy

Feb. 15, 2014 Rise Set
Actual Time 7:01 AM EST 5:55 PM EST
Civil Twilight 6:35 AM EST 6:21 PM EST
Nautical Twilight 6:05 AM EST 6:51 PM EST
Astronomical Twilight 5:35 AM EST 7:21 PM EST
Moon 6:50 PM EST (2/15) 7:02 AM EST (2/15)
Length of Visible Light 11h 45m
Length of Day
10h 53m
Full, 100% of the Moon is Illuminated
Feb 15
Full
Feb 22
Last Quarter
Mar 1
New
Mar 8
First Quarter
Mar 16
Full

Hourly Weather History & Observations

Time (EST) Temp. Windchill Dew Point Humidity Pressure Visibility Wind Dir Wind Speed Gust Speed Precip Events Conditions
12:15 AM 41.0 °F 37.1 °F 31.1 °F 68% 29.71 in 10.0 mi South 5.8 mph - N/A   Overcast
12:35 AM 40.5 °F 37.3 °F 30.9 °F 69% 29.70 in 10.0 mi SSW 4.6 mph - N/A   Mostly Cloudy
12:55 AM 39.6 °F - 30.9 °F 71% 29.69 in 10.0 mi Calm Calm - N/A   Scattered Clouds
1:15 AM 39.4 °F 37.2 °F 30.9 °F 72% 29.68 in 10.0 mi South 3.5 mph - N/A   Mostly Cloudy
1:35 AM 41.2 °F 37.3 °F 31.1 °F 67% 29.66 in 10.0 mi SSE 5.8 mph - N/A   Overcast
1:55 AM 40.5 °F 38.4 °F 31.1 °F 69% 29.65 in 10.0 mi SSE 3.5 mph - N/A   Overcast
2:15 AM 41.0 °F - 31.3 °F 68% 29.65 in 10.0 mi Calm Calm - N/A   Overcast
2:35 AM 39.6 °F 36.3 °F 31.3 °F 72% 29.65 in 10.0 mi South 4.6 mph - N/A   Overcast
2:55 AM 39.2 °F - 31.8 °F 75% 29.64 in 10.0 mi Calm Calm - N/A   Overcast
3:15 AM 39.2 °F 35.0 °F 32.0 °F 75% 29.64 in 10.0 mi South 5.8 mph - N/A   Overcast
3:35 AM 38.5 °F 34.1 °F 32.4 °F 79% 29.64 in 7.0 mi SSW 5.8 mph - N/A Rain Rain
3:55 AM 39.0 °F 35.7 °F 34.3 °F 83% 29.64 in 5.0 mi SW 4.6 mph - 0.04 in Rain Rain
4:15 AM 38.5 °F - 35.4 °F 89% 29.62 in 10.0 mi Calm Calm - 0.01 in Rain Light Rain
4:35 AM 37.6 °F - 35.8 °F 93% 29.61 in 7.0 mi Calm Calm - 0.01 in Rain Light Rain
4:55 AM 37.0 °F - 35.6 °F 95% 29.60 in 5.0 mi Calm Calm - 0.02 in Rain Light Rain
5:15 AM 38.3 °F 34.8 °F 37.0 °F 95% 29.60 in 7.0 mi SE 4.6 mph - N/A Rain Rain
5:35 AM 37.6 °F - 36.1 °F 95% 29.60 in 10.0 mi Calm Calm - N/A   Drizzle
5:55 AM 37.6 °F - 36.3 °F 95% 29.58 in 7.0 mi Calm Calm - 0.01 in Rain Light Rain
6:15 AM 37.4 °F - 36.0 °F 95% 29.58 in 4.0 mi Calm Calm - 0.01 in Rain Rain
6:35 AM 36.9 °F - 35.8 °F 96% 29.57 in 1.2 mi Calm Calm - 0.03 in Rain Rain
6:55 AM 36.5 °F - 35.4 °F 96% 29.56 in 0.8 mi Calm Calm - 0.05 in Rain Light Rain
7:15 AM 36.5 °F - 35.6 °F 97% 29.56 in 0.8 mi Calm Calm - 0.03 in Rain Rain
7:35 AM 36.5 °F - 35.6 °F 97% 29.55 in 0.2 mi Calm Calm - 0.04 in Rain Rain
7:55 AM 36.7 °F 34.1 °F 35.8 °F 97% 29.54 in 0.2 mi NE 3.5 mph - 0.06 in Rain Light Rain
8:15 AM 36.7 °F 34.1 °F 35.8 °F 97% 29.55 in 0.5 mi North 3.5 mph - 0.01 in Rain Light Rain
8:35 AM 37.4 °F - 36.5 °F 97% 29.55 in 1.2 mi Calm Calm - 0.02 in Rain Rain
8:55 AM 37.4 °F 32.1 °F 36.5 °F 97% 29.56 in 1.5 mi WNW 6.9 mph - 0.03 in Rain Light Rain
9:15 AM 37.9 °F 34.4 °F 37.0 °F 97% 29.56 in 3.0 mi WNW 4.6 mph - 0.03 in Rain Rain
9:35 AM 38.3 °F 34.8 °F 37.4 °F 97% 29.56 in 3.0 mi West 4.6 mph - 0.05 in Rain Rain
9:55 AM 38.3 °F 35.9 °F 37.4 °F 97% 29.56 in 3.0 mi West 3.5 mph - 0.07 in Rain Rain
10:15 AM 38.8 °F 34.6 °F 37.9 °F 97% 29.57 in 4.0 mi WNW 5.8 mph - 0.02 in Rain Light Rain
10:35 AM 38.7 °F 32.4 °F 37.8 °F 97% 29.58 in 5.0 mi NW 9.2 mph - 0.03 in Rain Rain
10:55 AM 38.8 °F 32.1 °F 37.8 °F 96% 29.58 in 7.0 mi NW 10.4 mph 17.3 mph 0.03 in   Overcast
11:15 AM 38.8 °F 31.2 °F 36.9 °F 93% 29.59 in 10.0 mi WNW 12.7 mph 23.0 mph N/A   Overcast
11:35 AM 39.2 °F 33.6 °F 36.5 °F 90% 29.61 in 10.0 mi NW 8.1 mph 23.0 mph N/A   Overcast
11:55 AM 40.6 °F 34.8 °F 36.9 °F 86% 29.61 in 10.0 mi WNW 9.2 mph 18.4 mph N/A   Overcast
12:15 PM 43.2 °F 35.3 °F 35.4 °F 74% 29.61 in 10.0 mi WNW 17.3 mph 23.0 mph N/A   Mostly Cloudy
12:35 PM 43.9 °F 38.8 °F 31.1 °F 61% 29.62 in 10.0 mi WNW 9.2 mph 24.2 mph N/A   Mostly Cloudy
12:55 PM 44.4 °F 37.2 °F 28.2 °F 53% 29.64 in 10.0 mi WNW 16.1 mph 25.3 mph N/A   Scattered Clouds
1:15 PM 43.7 °F 38.1 °F 25.2 °F 48% 29.66 in 10.0 mi WNW 10.4 mph 31.1 mph N/A   Mostly Cloudy
1:35 PM 41.4 °F 32.4 °F 21.9 °F 46% 29.68 in 10.0 mi WNW 19.6 mph 29.9 mph N/A   Overcast
1:55 PM 41.5 °F 33.5 °F 21.6 °F 45% 29.69 in 10.0 mi WNW 16.1 mph 28.8 mph N/A   Overcast
2:15 PM 41.0 °F 32.2 °F 21.2 °F 45% 29.71 in 10.0 mi West 18.4 mph 29.9 mph N/A   Overcast
2:35 PM 41.5 °F 33.2 °F 20.1 °F 42% 29.72 in 10.0 mi West 17.3 mph 26.5 mph N/A   Mostly Cloudy
2:55 PM 42.8 °F 36.2 °F 19.6 °F 40% 29.74 in 10.0 mi NW 12.7 mph 24.2 mph N/A   Scattered Clouds
3:15 PM 42.1 °F 35.2 °F 19.8 °F 41% 29.76 in 10.0 mi WNW 12.7 mph 29.9 mph N/A   Clear
3:35 PM 41.4 °F 34.0 °F 16.9 °F 37% 29.78 in 10.0 mi WNW 13.8 mph 26.5 mph N/A   Clear
3:55 PM 41.2 °F 34.1 °F 16.2 °F 36% 29.79 in 10.0 mi West 12.7 mph 23.0 mph N/A   Clear
4:15 PM 40.1 °F 33.2 °F 14.2 °F 35% 29.82 in 10.0 mi WNW 11.5 mph 26.5 mph N/A   Clear
4:35 PM 39.4 °F 31.4 °F 13.1 °F 34% 29.84 in 10.0 mi West 13.8 mph 28.8 mph N/A   Clear
4:55 PM 38.3 °F 30.1 °F 13.1 °F 36% 29.86 in 10.0 mi WNW 13.8 mph 25.3 mph N/A   Clear
5:15 PM 37.2 °F 27.6 °F 12.6 °F 36% 29.88 in 10.0 mi WNW 17.3 mph 25.3 mph N/A   Clear
5:35 PM 36.1 °F 28.7 °F 11.8 °F 37% 29.89 in 10.0 mi WNW 10.4 mph 21.9 mph N/A   Clear
5:55 PM 35.2 °F 28.1 °F 12.0 °F 38% 29.90 in 10.0 mi WNW 9.2 mph 20.7 mph N/A   Clear
6:15 PM 34.7 °F 28.1 °F 12.4 °F 40% 29.91 in 10.0 mi WNW 8.1 mph 16.1 mph N/A   Clear
6:35 PM 34.0 °F 26.6 °F 12.7 °F 42% 29.93 in 10.0 mi WNW 9.2 mph 23.0 mph N/A   Clear
6:55 PM 33.4 °F 26.6 °F 12.2 °F 42% 29.94 in 10.0 mi West 8.1 mph - N/A   Clear
7:15 PM 33.3 °F 26.4 °F 11.7 °F 41% 29.95 in 10.0 mi WNW 8.1 mph - N/A   Clear
7:35 PM 32.9 °F 25.3 °F 11.8 °F 42% 29.96 in 10.0 mi West 9.2 mph - N/A   Clear
7:55 PM 32.4 °F 24.6 °F 12.9 °F 45% 29.98 in 10.0 mi West 9.2 mph 16.1 mph N/A   Clear
8:15 PM 32.0 °F 25.6 °F 13.8 °F 47% 30.00 in 10.0 mi West 6.9 mph - N/A   Clear
8:35 PM 32.0 °F 25.6 °F 14.0 °F 48% 30.00 in 10.0 mi West 6.9 mph - N/A   Clear
8:55 PM 31.8 °F 26.2 °F 14.0 °F 48% 30.02 in 10.0 mi West 5.8 mph - N/A   Clear
9:15 PM 31.8 °F 24.6 °F 14.2 °F 48% 30.03 in 10.0 mi West 8.1 mph - N/A   Clear
9:35 PM 32.0 °F 27.5 °F 14.0 °F 48% 30.02 in 10.0 mi West 4.6 mph - N/A   Clear
9:55 PM 31.6 °F 26.0 °F 14.4 °F 49% 30.02 in 10.0 mi WNW 5.8 mph - N/A   Clear
10:15 PM 31.5 °F 26.8 °F 14.5 °F 50% 30.02 in 10.0 mi West 4.6 mph - N/A   Clear
10:35 PM 30.9 °F 27.5 °F 14.5 °F 51% 30.03 in 10.0 mi West 3.5 mph - N/A   Clear
10:55 PM 30.2 °F 25.4 °F 14.0 °F 51% 30.03 in 10.0 mi West 4.6 mph - N/A   Clear
11:15 PM 30.0 °F 26.5 °F 14.4 °F 52% 30.02 in 10.0 mi West 3.5 mph - N/A   Clear
11:35 PM 29.3 °F - 14.9 °F 55% 30.02 in 10.0 mi Calm Calm - N/A   Clear
11:55 PM 30.0 °F 25.2 °F 15.1 °F 54% 30.03 in 10.0 mi West 4.6 mph - N/A   Clear